Weather History for KMCB - May, 2013

Change the Weather History Date:

Sunday, May 5, 2013

  Actual Average Record
Temperature  
Mean Temperature 53 °F -  
Max Temperature 62 °F 81 °F 92 °F (1952)
Min Temperature 46 °F 56 °F 43 °F (1954)
Degree Days  
Heating Degree Days 12    
Growing Degree Days 3 (Base 50)    
Moisture  
Dew Point 42 °F    
Average Humidity 71    
Maximum Humidity 93    
Minimum Humidity 46    
Precipitation  
Precipitation 0.00 in - - ()
Sea Level Pressure  
Sea Level Pressure 29.96 in    
Wind  
Wind Speed 8 mph (NW)    
Max Wind Speed 18 mph    
Max Gust Speed 24 mph    
Visibility 10 miles    
Events      
Averages and records for this station are not official NWS values.
T = Trace of Precipitation, MM = Missing Value Source: NWS Daily Summary

Daily Weather History Graph

Daily Weather History Graph

Search for Another Location

Airport or City:

Trip Planner

Search our weather history database for the weather conditions in past years. The results will help you decide how hot, cold, wet, or windy it might be!

Date:

Astronomy

May. 05, 2013 Rise Set
Actual Time 6:13 AM CDT 7:44 PM CDT
Civil Twilight 5:47 AM CDT 8:10 PM CDT
Nautical Twilight 5:16 AM CDT 8:41 PM CDT
Astronomical Twilight 4:44 AM CDT 9:13 PM CDT
Moon 3:27 AM CDT (5/5) 3:58 PM CDT (5/5)
Length of Visible Light 14h 22m
Length of Day
13h 30m
Waning Crescent, 18% of the Moon is Illuminated
May 5
Waning Crescent
May 9
New
May 17
First Quarter
May 24
Full
May 31
Last Quarter

Hourly Weather History & Observations

Time (CDT) Temp. Dew Point Humidity Pressure Visibility Wind Dir Wind Speed Gust Speed Precip Events Conditions
12:53 AM 54.0 °F 48.9 °F 83% 29.89 in 10.0 mi NNW 6.9 mph - N/A   Clear
1:53 AM 52.0 °F 48.0 °F 86% 29.87 in 10.0 mi North 4.6 mph - N/A   Partly Cloudy
2:53 AM 50.0 °F 46.9 °F 89% 29.88 in 10.0 mi NW 3.5 mph - N/A   Mostly Cloudy
3:53 AM 50.0 °F 46.9 °F 89% 29.87 in 10.0 mi Calm Calm - N/A   Overcast
4:53 AM 50.0 °F 46.0 °F 86% 29.88 in 10.0 mi WNW 10.4 mph - N/A   Mostly Cloudy
5:53 AM 48.0 °F 41.0 °F 77% 29.91 in 10.0 mi NNW 10.4 mph - N/A   Overcast
6:53 AM 46.9 °F 41.0 °F 80% 29.93 in 10.0 mi NW 9.2 mph - N/A   Clear
7:53 AM 48.0 °F 39.9 °F 74% 29.95 in 10.0 mi NW 11.5 mph - N/A   Clear
8:53 AM 50.0 °F 39.9 °F 68% 29.96 in 10.0 mi WNW 16.1 mph - N/A   Partly Cloudy
9:53 AM 52.0 °F 37.9 °F 59% 29.97 in 10.0 mi WNW 11.5 mph 21.9 mph N/A   Mostly Cloudy
10:53 AM 53.1 °F 37.9 °F 57% 29.98 in 10.0 mi WNW 18.4 mph 23.0 mph N/A   Mostly Cloudy
11:53 AM 57.0 °F 39.0 °F 51% 29.99 in 10.0 mi NW 15.0 mph 24.2 mph N/A   Mostly Cloudy
1:53 PM 60.1 °F 39.0 °F 46% 29.97 in 10.0 mi NNW 13.8 mph 20.7 mph N/A   Mostly Cloudy
2:53 PM 59.0 °F 39.9 °F 49% 29.97 in 10.0 mi NNW 10.4 mph 21.9 mph N/A   Mostly Cloudy
3:53 PM 59.0 °F 39.9 °F 49% 29.96 in 10.0 mi NNW 12.7 mph - N/A   Overcast
4:53 PM 57.9 °F 39.9 °F 51% 29.97 in 10.0 mi NNW 16.1 mph 21.9 mph N/A   Mostly Cloudy
5:53 PM 57.9 °F 39.9 °F 51% 29.97 in 10.0 mi NNW 11.5 mph - N/A   Overcast
7:53 PM 55.0 °F 43.0 °F 64% 30.00 in 10.0 mi NNW 3.5 mph - N/A   Overcast
8:53 PM 51.1 °F 45.0 °F 80% 30.01 in 10.0 mi Calm Calm - N/A   Partly Cloudy
9:53 PM 48.0 °F 45.0 °F 89% 30.03 in 10.0 mi Calm Calm - N/A   Clear
10:53 PM 46.9 °F 45.0 °F 93% 30.03 in 10.0 mi Calm Calm - N/A   Clear
11:53 PM 46.0 °F 43.0 °F 89% 30.03 in 10.0 mi Calm Calm - N/A   Clear